Jefferson, NC

6:36 PM EDT on May 21, 2018 (GMT -0400)
Ashe County

Weather History for KGEV - October, 2010

Change the Weather History Date:

Tuesday, October 19, 2010

  Actual Average Record
Temperature  
Mean Temperature 62 °F -  
Max Temperature 69 °F 62 °F 77 °F (1984)
Min Temperature 55 °F 37 °F 23 °F (1976)
Degree Days  
Heating Degree Days 3    
Growing Degree Days 12 (Base 50)    
Moisture  
Dew Point 37 °F    
Average Humidity 41    
Maximum Humidity 55    
Minimum Humidity 31    
Precipitation  
Precipitation 0.00 in - - ()
Sea Level Pressure  
Sea Level Pressure 29.95 in    
Wind  
Wind Speed 9 mph (West)    
Max Wind Speed 16 mph    
Max Gust Speed 26 mph    
Visibility 10 miles    
Events      
Averages and records for this station are not official NWS values.
T = Trace of Precipitation, MM = Missing Value Source: NWS Daily Summary

Daily Weather History Graph

Daily Weather History Graph

Search for Another Location

Airport or City:

Astronomy

Oct. 19, 2010 Rise Set
Actual Time 7:36 AM EDT 6:44 PM EDT
Civil Twilight 7:10 AM EDT 7:10 PM EDT
Nautical Twilight 6:40 AM EDT 7:40 PM EDT
Astronomical Twilight 6:10 AM EDT 8:10 PM EDT
Moon 4:49 PM EDT (10/19) 4:25 AM EDT (10/19)
Length of Visible Light 12h 00m
Length of Day
11h 07m
Waxing Gibbous, 89% of the Moon is Illuminated
Oct 19
Waxing Gibbous
Oct 22
Full
Oct 30
Last Quarter
Nov 6
New
Nov 13
First Quarter

Hourly Weather History & Observations

Time (EDT) Temp. Dew Point Humidity Pressure Visibility Wind Dir Wind Speed Gust Speed Precip Events Conditions
12:01 AM 60.8 °F 39.2 °F 45% 29.98 in 10.0 mi WNW 6.9 mph - N/A   Clear
12:21 AM 60.8 °F 39.2 °F 45% 29.97 in 10.0 mi WNW 6.9 mph - N/A   Clear
1:01 AM 59.0 °F 41.0 °F 51% 29.97 in 10.0 mi WNW 8.1 mph - N/A   Clear
1:23 AM 59.0 °F 41.0 °F 51% 29.97 in 10.0 mi West 5.8 mph - N/A   Clear
1:41 AM 59.0 °F 41.0 °F 51% 29.97 in 10.0 mi West 8.1 mph 19.6 mph N/A   Clear
2:01 AM 57.2 °F 41.0 °F 55% 29.96 in 10.0 mi West 12.7 mph 19.6 mph N/A   Clear
2:21 AM 57.2 °F 39.2 °F 51% 29.96 in 10.0 mi WNW 16.1 mph 24.2 mph N/A   Clear
2:41 AM 57.2 °F 39.2 °F 51% 29.96 in 10.0 mi West 13.8 mph 21.9 mph N/A   Clear
3:01 AM 57.2 °F 39.2 °F 51% 29.95 in 10.0 mi West 11.5 mph 18.4 mph N/A   Clear
3:21 AM 57.2 °F 37.4 °F 48% 29.95 in 10.0 mi NW 8.1 mph 17.3 mph N/A   Clear
3:41 AM 55.4 °F 39.2 °F 54% 29.94 in 10.0 mi NW 12.7 mph 16.1 mph N/A   Clear
4:01 AM 55.4 °F 37.4 °F 51% 29.94 in 10.0 mi WNW 6.9 mph 19.6 mph N/A   Clear
4:22 AM 57.2 °F 37.4 °F 48% 29.93 in 10.0 mi West 9.2 mph 18.4 mph N/A   Clear
4:41 AM 57.2 °F 37.4 °F 48% 29.93 in 10.0 mi NNW 3.5 mph - N/A   Clear
5:01 AM 57.2 °F 37.4 °F 48% 29.93 in 10.0 mi West 9.2 mph - N/A   Clear
5:21 AM 55.4 °F 37.4 °F 51% 29.93 in 10.0 mi WNW 8.1 mph - N/A   Clear
5:41 AM 57.2 °F 35.6 °F 44% 29.93 in 10.0 mi WNW 10.4 mph 17.3 mph N/A   Clear
6:01 AM 57.2 °F 33.8 °F 41% 29.93 in 10.0 mi West 12.7 mph 21.9 mph N/A   Clear
6:21 AM 57.2 °F 33.8 °F 41% 29.93 in 10.0 mi WNW 10.4 mph 21.9 mph N/A   Clear
6:41 AM 57.2 °F 35.6 °F 44% 29.94 in 10.0 mi West 12.7 mph 26.5 mph N/A   Clear
7:01 AM 55.4 °F 35.6 °F 47% 29.95 in 10.0 mi WNW 6.9 mph 17.3 mph N/A   Clear
7:21 AM 55.4 °F 35.6 °F 47% 29.94 in 10.0 mi West 11.5 mph 19.6 mph N/A   Clear
7:41 AM 57.2 °F 35.6 °F 44% 29.95 in 10.0 mi West 6.9 mph 17.3 mph N/A   Clear
8:01 AM 57.2 °F 35.6 °F 44% 29.95 in 10.0 mi West 9.2 mph 20.7 mph N/A   Clear
8:21 AM 57.2 °F 35.6 °F 44% 29.95 in 10.0 mi West 10.4 mph 19.6 mph N/A   Clear
8:41 AM 57.2 °F 35.6 °F 44% 29.96 in 10.0 mi West 12.7 mph 17.3 mph N/A   Clear
9:01 AM 57.2 °F 35.6 °F 44% 29.96 in 10.0 mi West 6.9 mph 10.4 mph N/A   Clear
9:21 AM 59.0 °F 33.8 °F 39% 29.97 in 10.0 mi West 6.9 mph - N/A   Clear
9:41 AM 60.8 °F 33.8 °F 36% 29.97 in 10.0 mi West 12.7 mph - N/A   Clear
10:01 AM 60.8 °F 33.8 °F 36% 29.97 in 10.0 mi West 12.7 mph - N/A   Clear
10:21 AM 62.6 °F 33.8 °F 34% 29.98 in 10.0 mi West 11.5 mph - N/A   Clear
10:41 AM 62.6 °F 33.8 °F 34% 29.98 in 10.0 mi West 11.5 mph - N/A   Clear
11:01 AM 64.4 °F 35.6 °F 34% 29.98 in 10.0 mi West 11.5 mph - N/A   Clear
11:22 AM 64.4 °F 35.6 °F 34% 29.98 in 10.0 mi West 12.7 mph - N/A   Clear
11:41 AM 66.2 °F 35.6 °F 32% 29.98 in 10.0 mi West 11.5 mph - N/A   Clear
12:01 PM 66.2 °F 35.6 °F 32% 29.97 in 10.0 mi WNW 11.5 mph - N/A   Clear
12:21 PM 66.2 °F 35.6 °F 32% 29.97 in 10.0 mi West 10.4 mph - N/A   Clear
1:01 PM 68.0 °F 37.4 °F 33% 29.97 in 10.0 mi West 10.4 mph - N/A   Clear
1:22 PM 68.0 °F 37.4 °F 33% 29.97 in 10.0 mi WNW 8.1 mph 17.3 mph N/A   Clear
1:41 PM 68.0 °F 37.4 °F 33% 29.96 in 10.0 mi West 12.7 mph 21.9 mph N/A   Clear
2:01 PM 68.0 °F 37.4 °F 33% 29.95 in 10.0 mi WNW 5.8 mph 20.7 mph N/A   Clear
2:21 PM 68.0 °F 37.4 °F 33% 29.94 in 10.0 mi WSW 12.7 mph - N/A   Clear
3:22 PM 69.8 °F 37.4 °F 31% 29.93 in 10.0 mi WSW 11.5 mph 17.3 mph N/A   Mostly Cloudy
3:41 PM 69.8 °F 37.4 °F 31% 29.93 in 10.0 mi West 8.1 mph 17.3 mph N/A   Scattered Clouds
4:01 PM 68.0 °F 37.4 °F 33% 29.93 in 10.0 mi WSW 9.2 mph - N/A   Scattered Clouds
4:21 PM 68.0 °F 37.4 °F 33% 29.94 in 10.0 mi WSW 6.9 mph - N/A   Clear
4:43 PM 66.2 °F 37.4 °F 35% 29.93 in 10.0 mi West 6.9 mph - N/A   Scattered Clouds
5:01 PM 66.2 °F 37.4 °F 35% 29.93 in 10.0 mi WSW 6.9 mph - N/A   Clear
5:21 PM 68.0 °F 37.4 °F 33% 29.93 in 10.0 mi West 8.1 mph - N/A   Scattered Clouds
5:41 PM 66.2 °F 37.4 °F 35% 29.93 in 10.0 mi West 5.8 mph - N/A   Clear
6:01 PM 66.2 °F 37.4 °F 35% 29.94 in 10.0 mi WSW 6.9 mph - N/A   Clear
6:21 PM 64.4 °F 37.4 °F 37% 29.94 in 10.0 mi West 8.1 mph - N/A   Clear
6:41 PM 64.4 °F 39.2 °F 40% 29.94 in 10.0 mi West 4.6 mph - N/A   Clear
7:01 PM 62.6 °F 39.2 °F 42% 29.95 in 10.0 mi West 5.8 mph - N/A   Clear
7:21 PM 62.6 °F 39.2 °F 42% 29.95 in 10.0 mi West 5.8 mph - N/A   Scattered Clouds
7:41 PM 62.6 °F 41.0 °F 45% 29.95 in 10.0 mi West 4.6 mph - N/A   Clear
8:01 PM 60.8 °F 41.0 °F 48% 29.95 in 10.0 mi WNW 3.5 mph - N/A   Clear
8:21 PM 60.8 °F 41.0 °F 48% 29.95 in 10.0 mi West 3.5 mph - N/A   Clear
8:41 PM 60.8 °F 41.0 °F 48% 29.95 in 10.0 mi WNW 4.6 mph - N/A   Mostly Cloudy
9:01 PM 62.6 °F 41.0 °F 45% 29.95 in 10.0 mi WNW 5.8 mph - N/A   Mostly Cloudy
9:21 PM 60.8 °F 41.0 °F 48% 29.95 in 10.0 mi West 6.9 mph - N/A   Scattered Clouds
9:41 PM 60.8 °F 41.0 °F 48% 29.95 in 10.0 mi West 6.9 mph - N/A   Scattered Clouds
10:01 PM 60.8 °F 42.8 °F 52% 29.95 in 10.0 mi West 5.8 mph - N/A   Scattered Clouds
10:21 PM 60.8 °F 42.8 °F 52% 29.96 in 10.0 mi West 5.8 mph - N/A   Clear
10:41 PM 60.8 °F 41.0 °F 48% 29.96 in 10.0 mi West 4.6 mph - N/A   Clear
11:01 PM 57.2 °F 42.8 °F 59% 29.96 in 10.0 mi Calm Calm - N/A   Mostly Cloudy
11:21 PM 60.8 °F 42.8 °F 52% 29.96 in 10.0 mi Calm Calm - N/A   Mostly Cloudy
11:41 PM 57.2 °F 42.8 °F 59% 29.96 in 10.0 mi Calm Calm - N/A   Mostly Cloudy